Weather in Pryganka

Russia / Altai Krai     53°57′48″N   80°48′24″E
В апреле 2022 года жителям России запретили посещать сайт meteo.paraplan.net по решению Генеральной прокуратуры. Аудитория сайта уменьшилась в 10 раз. Владельцы сайта не видят смысла в поддержке погодного сервера в таких условиях. Сайт будет закрыт в октябре.
temp.,
°C
wind,
m/s
gust,
m/s
humid.,
%
clouds,
%
prec.,
mm/h
press.,
hPa
HPBL,
m
30 september, fri
fri3001:00−2w51093100 0.3 1022561
04:00−2w5109499 0.4 1023612
07:00−2w61194100 1.2 1024600
10:00−1wnw71187100 0.5 1024595
13:00+1nw6986100 0.8 1025715
16:00+1nw61093100 0.5 1026775
19:00+1nnw51097100 1.1 1028586
22:00+1nnw5997100 0.3 1030616
1 october, sat
sat101:000nnw4794100 0.4 1031515
04:000nnw3792100 0.0 1032353
07:00−1nnw379191 0.0 1034252
10:000nnw358228 0.0 1036285
13:00+3nnw34675 0.0 1037738
16:00+4nnw335990 0.0 10371238
19:00+3n226789 0.1 103846
22:00+2nne1169100 0.1 103811
2 october, sun
sun201:000n01765 0.1 103910
04:00−1ese11805 0.0 103910
07:00−2ese11825 0.0 104010
10:00+1ese22715 0.0 1040278
13:00+4ese225559 0.0 10401128
16:00+5ene224998 0.0 10391362
19:00+3e346677 0.0 103874
22:000e237924 0.0 103949
3 october, mon
mon301:00−1e22825 0.0 103934
04:00−1ene23835 0.0 103864
07:00−2ene36855 0.0 1038120
10:00+2ene46705 0.0 1038375
13:00+5ene45515 0.0 1036929
16:00+7ne45455 0.0 10351079
19:00+3ne36620 0.0 1035112
22:00+1ne35770 0.0 103591
4 october, tue
tue401:00−1ne34830 0.0 103563
04:00−1ne35850 0.0 103597
07:00−1nne36855 0.0 1035106
10:00+2ne35635 0.0 1035286
13:00+7nne344249 0.0 1034731
16:00+9nne343741 0.0 1034864
19:00+5n34534 0.0 103457
22:00+3n33635 0.0 103535